STARLINK-37190

Last updated on Sun Apr 12 2026 00:02:09 GMT+0000 (Coordinated Universal Time)

1 68396U 26063S 26101.48804696 .00121398 00000+0 62404-3 0 9996 2 68396 97.2832 242.8698 0001589 125.0977 235.0440 15.80875132 2806
UTC large
Height (km)
Speed (km/s)
/
Latitude / Longitude
Inclination (degrees)
Orbital Period (minutes)
Azimuth
Elevation
Range (km)
Doppler Factor

Next 0 passes for location: London (51.5072 / 0.1276)

Sorry there are no passes over London.
STARLINK-37190